CO3D B

Last updated on Mon Jul 28 2025 00:02:07 GMT+0000 (Coordinated Universal Time)

1 64900U 25156B 25208.02960971 -.00000070 00000+0 00000+0 0 9995 2 64900 97.4527 286.2204 0002901 176.4995 306.3136 15.22479522 126

Satellite not in orbit

CO3D B